Tambon Phrabat, Thailand

11:08 AM ICT on September 03, 2015 (GMT +0700)
Chiang Mai International | | Change Station
CLOSE
Current Station
Airport
Location: Chiang Mai,
Elevation: 1030 ft
Nearby Weather Stations

Elev 1030 ft 18.77 °N, 98.97 °E | Updated 8 minutes ago

Mostly Cloudy
Mostly Cloudy
86 °F
Feels Like 90 °F
N
6
Wind Variable Wind from South

Today
High -- | Low -- °F
--% Chance of Precip.
Yesterday
High -- | Low -- °F
Precip. -- in
6:07 AM 6:35 PM
Waning Gibbous, 74% visible
Pressure 29.92 in
Visibility 6.2 miles
Clouds Mostly Cloudy 3500 ft
Heat Index 90 °F
Dew Point 70 °F
Humidity 58%
Rainfall 0.00 in
Snow Depth Not available.
UV 9 out of 12
Pollen Not available.
Air Quality Not available.
Flu Activity Not available.
METAR VTCC 030400Z 17005KT 9999 BKN035 30/21 Q1013 A2993 NOSIG
Pressure 29.92 in
Visibility 6.2 miles
Clouds Mostly Cloudy 3500 ft
Heat Index 90 °F
Dew Point 70 °F
Humidity 58%
Rainfall 0.00 in
Snow Depth Not available.
UV 9 out of 12
Pollen Not available.
Air Quality Not available.
Flu Activity Not available.
METAR VTCC 030400Z 17005KT 9999 BKN035 30/21 Q1013 A2993 NOSIG

10-Day Weather Forecast

×

Almanac

Astronomy

Sep. 03, 2015 Rise Set
Actual Time
Civil Twilight
Nautical Twilight
Astronomical Twilight
Moon
Length of Visible Light
Length of Day
Tomorrow will be .
, % of the Moon is Illuminated

Today's Extremes

Country Highs Country Lows

Community

WunderPhotos

Upload Photos

1,851,908 photos uploaded!

WunderBlogs® & News

Nearby

Air Quality

  Air Quality AQ Index Pollutant
Not available.

Snow Depth

Station Depth Elevation

Earthquake Activity

City Distance Mag. Time & Date
Minimum magnitude displayed is 2.5.

Coastal Water Temperatures

Place Temperature

Stations

Nearby Weather Stations

Station Location Temp. Windchill Dew Point Humidity Wind Precip. Elev Updated Type